Change the Weather History Date:

Tuesday, October 30, 2012

  Actual Average Record
Temperature  
Mean Temperature 45 °F -  
Max Temperature 52 °F 45 °F 71 °F (1999)
Min Temperature 38 °F 32 °F 24 °F (2008)
Degree Days  
Heating Degree Days 20    
Moisture  
Dew Point 45 °F    
Average Humidity 93    
Maximum Humidity 100    
Minimum Humidity 87    
Precipitation  
Precipitation 0.67 in 0.11 in - ()
Sea Level Pressure  
Sea Level Pressure 29.25 in    
Wind  
Wind Speed 21 mph ()    
Max Wind Speed 36 mph    
Max Gust Speed 48 mph    
Visibility 9.6 miles    
Events Rain    
Averages and records for this station are not official NWS values.
T = Trace of Precipitation, MM = Missing Value Source: Averaged Metar Reports

Daily Weather History Graph

Daily Weather History Graph

Search for Another Location

Airport or City:

Trip Planner

Search our weather history database for the weather conditions in past years. The results will help you decide how hot, cold, wet, or windy it might be!

Date:

Astronomy

Oct. 30, 2012 Rise Set
Actual Time 7:52 AM EDT 6:13 PM EDT
Civil Twilight 7:23 AM EDT 6:42 PM EDT
Nautical Twilight 6:49 AM EDT 7:16 PM EDT
Astronomical Twilight 6:16 AM EDT 7:49 PM EDT
Moon 6:39 PM EDT (10/30) 8:39 AM EDT (10/30)
Length of Visible Light 11h 19m
Length of Day
10h 20m
Full, 99% of the Moon is Illuminated
Oct 30
Full
Nov 6
Last Quarter
Nov 13
New
Nov 20
First Quarter
Nov 28
Full

Hourly Weather History & Observations

Time (EDT) Temp. Windchill Dew Point Humidity Pressure Visibility Wind Dir Wind Speed Gust Speed Precip Events Conditions
12:00 AM 41.0 °F 29.3 °F 39.2 °F 93% 29.33 in 15.0 mi North 33.4 mph 42.6 mph N/A Rain Light Rain Showers
1:00 AM 41.0 °F 29.3 °F 37.4 °F 87% 29.28 in 15.0 mi North 33.4 mph 44.9 mph N/A Rain Light Rain Showers
2:00 AM 40 °F - 38 °F 90% 29.26 in 15 mi North 29.9 mph - - Rain Light Rain Showers
2:00 AM 41.0 °F 29.5 °F 37.4 °F 87% 29.26 in 15.0 mi North 32.2 mph 41.4 mph N/A Rain Light Rain Showers
3:00 AM 41.0 °F 29.5 °F 39.2 °F 93% 29.22 in 2.5 mi North 32.2 mph 41.4 mph N/A Rain Light Rain Showers
4:00 AM 41.0 °F 30.5 °F 39.2 °F 93% 29.19 in 15.0 mi North 26.5 mph 47.2 mph N/A Rain Light Rain Showers
5:00 AM 42.8 °F 31.4 °F 41.0 °F 93% 29.17 in 6.0 mi North 35.7 mph 48.3 mph N/A Rain Light Rain Showers
6:00 AM 44.6 °F 34.7 °F 42.8 °F 93% 29.18 in 15.0 mi North 29.9 mph 39.1 mph N/A Rain Light Rain Showers
7:00 AM 46.4 °F 37.5 °F 44.6 °F 93% 29.17 in 15.0 mi North 27.6 mph 42.6 mph N/A Rain Light Rain Showers
7:33 AM 46.4 °F 37.7 °F 44.6 °F 93% 29.18 in 15.0 mi North 26.5 mph 40.3 mph N/A   Overcast
8:00 AM 46 °F - 44 °F 89% 29.20 in 15 mi North 23.0 mph - - Rain Light Rain Showers
8:00 AM 46.4 °F 38.7 °F 42.8 °F 87% 29.20 in 15.0 mi North 20.7 mph 32.2 mph N/A   Overcast
8:40 AM 46.4 °F 39.2 °F 44.6 °F 93% 29.22 in 1.8 mi NNE 18.4 mph 35.7 mph N/A Rain Light Rain Showers
8:48 AM 46.4 °F 38.7 °F 44.6 °F 93% 29.21 in 4.0 mi NNE 20.7 mph 29.9 mph N/A Rain Light Rain Showers
9:00 AM 46.4 °F 37.7 °F 44.6 °F 93% 29.21 in 2.5 mi North 26.5 mph 43.7 mph N/A Rain Light Rain Showers
9:03 AM 46.4 °F 38.5 °F 44.6 °F 93% 29.22 in 10.0 mi NNE 21.9 mph 43.7 mph N/A Rain Light Rain Showers
10:00 AM 46.4 °F 39.2 °F 44.6 °F 93% 29.22 in 2.0 mi North 18.4 mph 25.3 mph N/A Rain Rain Showers
10:03 AM 46.4 °F 39.2 °F 44.6 °F 93% 29.22 in 3.0 mi North 18.4 mph 24.2 mph N/A Rain Light Rain Showers
10:12 AM 46.4 °F 39.0 °F 46.4 °F 100% 29.21 in 4.0 mi North 19.6 mph 28.8 mph N/A Rain Light Rain Showers
10:26 AM 48.2 °F - 46.4 °F 93% 29.22 in 1.8 mi NNE 21.9 mph 33.4 mph N/A Rain Light Rain Showers
10:47 AM 48.2 °F - 46.4 °F 93% 29.23 in 1.8 mi ESE 4.6 mph 20.7 mph N/A Rain Rain Showers
10:56 AM 48.2 °F - 46.4 °F 93% 29.24 in 2.5 mi East 10.4 mph - N/A Rain Light Rain Showers
11:00 AM 48.2 °F - 46.4 °F 93% 29.24 in 2.0 mi East 9.2 mph - N/A Rain Light Rain Showers
11:08 AM 48.2 °F - 46.4 °F 93% 29.24 in 10.0 mi NE 13.8 mph 19.6 mph N/A Rain Light Rain Showers
12:00 PM 51.8 °F - 50.0 °F 94% 29.25 in 15.0 mi NE 19.6 mph 31.1 mph N/A Rain Light Rain Showers
1:00 PM 51.8 °F - 51.8 °F 100% 29.25 in 8.0 mi NE 18.4 mph - N/A Rain Light Rain Showers
2:00 PM 51 °F - 50 °F 95% 29.26 in 7 mi NE 16.1 mph - - Rain Light Rain Showers
2:00 PM 51.8 °F - 50.0 °F 94% 29.26 in 8.0 mi NNE 15.0 mph - N/A Rain Light Rain Showers
3:00 PM 50.0 °F - 48.2 °F 94% 29.27 in 8.0 mi NE 15.0 mph 20.7 mph N/A Rain Light Rain Showers
3:21 PM 50.0 °F - 48.2 °F 94% 29.26 in 15.0 mi North 9.2 mph - N/A Rain Light Rain Showers
4:00 PM 50.0 °F - 48.2 °F 94% 29.28 in 15.0 mi NE 13.8 mph - N/A   Mostly Cloudy
5:00 PM 50.0 °F - 46.4 °F 87% 29.29 in 15.0 mi NE 12.7 mph - N/A   Overcast
6:00 PM 48.2 °F - 44.6 °F 87% 29.31 in 12.0 mi NE 17.3 mph - N/A Rain Light Rain Showers
7:00 PM 46.4 °F 41.1 °F 46.4 °F 100% 29.34 in 12.0 mi ENE 11.5 mph - N/A Rain Light Rain Showers
8:00 PM 46 °F - 45 °F 96% 29.35 in 12 mi East 3.5 mph - - Rain Light Rain Showers
8:00 PM 46.4 °F 45.2 °F 44.6 °F 93% 29.35 in 12.0 mi ESE 3.5 mph - N/A Rain Light Rain Showers
9:00 PM 44.6 °F 40.7 °F 44.6 °F 100% 29.37 in 6.0 mi South 6.9 mph - N/A Rain Light Rain Showers
10:00 PM 44.6 °F 42.2 °F 44.6 °F 100% 29.39 in 12.0 mi SSE 4.6 mph - N/A Rain Light Rain Showers
11:00 PM 44.6 °F 42.2 °F 42.8 °F 93% 29.39 in 12.0 mi East 4.6 mph - N/A Rain Light Rain Showers